Location: Kampong Paya Jaras Dalam
(3.1833°N, 101.5500°E)
Time: 04:35:12
(UTC+00:00)

ARIANE 5 R/B - Pass Details

Date: 15 May 2026
Orbit: 271 x 30935 km, 4.7° (Epoch: 7 June)

Event Time Altitude Azimuth Distance (km) Brightness Sun altitude
Rises 11:59:56 0° 265° (W) 19,107 10.4 -10.7°
Reaches altitude 10° 12:33:42 10° 261° (W) 9,927 8.5 -18.6°
Maximum altitude 12:55:45 54° 188° (S) 1,386 3.1 -23.7°
Enters shadow 12:56:58 46° 145° (SE) 1,275 2.7 -24.0°
